EDT,Max TemperatureF,Mean TemperatureF,Min TemperatureF,Max Dew PointF,MeanDew PointF,Min DewpointF,Max Humidity, Mean Humidity, Min Humidity, Max Sea Level PressureIn, Mean Sea Level PressureIn, Min Sea Level PressureIn, Max VisibilityMiles, Mean VisibilityMiles, Min VisibilityMiles, Max Wind SpeedMPH, Mean Wind SpeedMPH, Max Gust SpeedMPH,PrecipitationIn, CloudCover, Events, WindDirDegrees
2013-5-1,84,71,58,56,54,51,86,60,34,30.22,30.11,29.99,10,10,10,16,7,21,0.00,0,,182
2013-5-2,82,64,45,54,46,38,83,54,25,30.25,30.19,30.12,10,10,10,17,8,24,0.00,1,,92
2013-5-3,77,60,43,51,45,37,83,61,39,30.19,30.12,30.07,10,10,10,20,8,29,0.00,2,,130
2013-5-4,76,63,50,45,40,33,66,46,25,30.14,30.12,30.08,10,10,10,20,8,28,0.00,0,,125
2013-5-5,75,58,41,42,36,25,96,56,16,30.15,30.11,30.07,10,10,10,16,6,23,0.00,0,,109
2013-5-6,78,59,40,47,35,21,96,56,15,30.12,30.07,30.00,10,10,10,17,5,33,0.00,0,,95
2013-5-7,78,59,40,43,37,29,100,59,18,30.10,30.06,30.03,10,10,10,16,5,20,0.00,0,,133
2013-5-8,80,62,43,47,41,36,100,62,23,30.06,30.02,29.97,10,10,10,14,4,17,0.00,2,,182
2013-5-9,78,62,45,51,46,39,100,63,25,29.99,29.95,29.90,10,10,10,17,5,24,T,4,Rain,52
2013-5-10,54,46,38,46,39,35,100,86,71,29.97,29.93,29.90,10,8,2,20,11,25,0.82,8,Rain,41
2013-5-11,51,42,32,46,37,30,100,85,70,29.94,29.81,29.69,10,6,0,26,9,37,0.30,7,Fog-Rain-Snow,270
2013-5-12,37,34,30,34,30,23,100,80,59,30.09,29.89,29.78,10,6,1,29,16,44,0.09,8,Snow,308
2013-5-13,52,41,29,34,24,20,82,55,28,30.17,30.12,30.07,10,10,10,15,7,22,0.00,1,,297
2013-5-14,64,52,39,43,36,26,85,62,39,30.06,29.88,29.69,10,10,9,17,8,25,0.02,5,Rain,148
2013-5-15,74,63,51,50,43,34,89,57,25,29.80,29.68,29.50,10,10,10,28,11,38,0.00,0,,280
2013-5-16,73,58,43,46,38,25,80,49,18,30.08,29.91,29.78,10,10,10,20,7,28,0.00,0,,308
2013-5-17,60,49,38,44,40,37,100,73,46,30.23,30.16,30.09,10,9,1,12,5,18,T,5,Rain,114
2013-5-18,71,60,49,46,43,41,86,62,37,30.23,30.16,30.08,10,10,10,16,6,21,T,6,,103
2013-5-19,83,67,50,59,51,41,89,66,42,30.06,29.97,29.88,10,10,10,12,4,15,0.00,1,,176
2013-5-20,84,73,61,68,63,57,100,76,51,29.90,29.82,29.77,10,8,0,15,6,23,0.35,3,Fog-Rain-Thunderstorm,171
2013-5-21,79,69,59,65,61,58,100,76,52,29.81,29.75,29.69,10,7,1,14,8,21,0.23,4,Rain-Thunderstorm,203
2013-5-22,67,61,54,63,60,54,100,91,81,29.72,29.68,29.63,10,6,2,13,5,18,0.79,7,Rain,72
2013-5-23,54,46,38,54,44,33,100,81,61,30.23,29.92,29.71,10,9,2,18,10,25,0.15,7,Rain,14
2013-5-24,60,46,32,38,31,28,92,63,33,30.39,30.34,30.25,10,10,10,15,6,20,0.00,1,,4
2013-5-25,65,48,31,42,34,30,100,64,28,30.45,30.37,30.31,10,6,0,12,4,15,0.00,0,Fog,26
2013-5-26,69,52,34,43,37,29,100,62,23,30.39,30.33,30.26,10,5,0,14,4,18,0.00,1,Fog,214
2013-5-27,69,53,37,42,36,27,100,61,21,30.28,30.20,30.02,10,7,0,16,7,29,0.00,1,Fog,120
2013-5-28,63,57,50,61,53,39,100,80,59,30.02,29.89,29.78,10,4,0,15,7,20,0.23,8,Fog-Rain,131
2013-5-29,77,69,61,64,62,60,100,80,60,29.97,29.86,29.77,10,7,2,15,6,21,0.05,6,,252
2013-5-30,84,73,61,70,65,61,100,78,55,29.98,29.96,29.92,10,9,1,26,7,52,0.61,3,Rain-Thunderstorm,177
2013-5-31,80,73,66,66,63,59,90,71,52,29.92,29.86,29.80,10,10,10,18,11,25,T,4,,202